Погода в Татыр-Узяке

Россия / Республика Башкортостан     51°57′46″N   58°08′43″E
темп.,
°C
ветер,
м/с
пор.,
м/с
влажн.,
%
обл.,
%
осадки,
мм/ч
давл.,
гПа
погр.,
м
22 апреля, чт
чт2223:00+5ююв3652100 0.0 1034104
02:00+4ююв3658100 0.0 1034100
05:00+4ююв3460100 0.0 103464
08:00+4ююв31059100 0.1 1035380
11:00+6ююв6953100 0.3 1035623
14:00+8ююв6844100 0.0 1034825
17:00+9ююв6844100 0.0 10331015
20:00+7ю5955100 0.1 1033534
23 апреля, пт
пт2323:00+5ююз4983100 1.0 1034545
02:00+5вюв41081100 0.1 1032434
05:00+4вюв3881100 0.1 1032214
08:00+6юв4971100 0.0 1032334
11:00+11ююв6948100 0.0 1030904
14:00+12ю8850100 0.0 10301302
17:00+10ююв5762100 0.1 10291249
20:00+8вюв61074100 0.0 1028546
24 апреля, сб
сб2423:00+8вюв71377100 0.0 1026634
02:00+7в71472100 0.0 1023566
05:00+6в71367100 0.3 1020438
08:00+6юв81175100 0.1 1019875
11:00+4вюв61196100 2.4 1018803
14:00+8юв71178100 0.6 10151235
17:00+11в61051100 0.6 10111090
20:00+8ю2580100 0.1 1011150
25 апреля, вс
вс2523:00+7зсз81280100 0.3 1012720
02:00+6з71387100 0.0 1014747
05:00+6з6118778 0.0 1016577
08:00+6з478512 0.0 1018318
11:00+9юз597898 0.0 1018482
14:00+14зюз91359100 0.4 10171791
17:00+13зюз7125960 0.8 10181832
20:00+11зюз4856100 0.0 1019252
26 апреля, пн
пн2623:00+8юз3876100 0.0 1020184
02:00+7юз3789100 0.0 1021185
05:00+7юз3794100 0.0 1021170
08:00+9ююз3991100 0.1 1020391
11:00+10юз5988100 1.7 1020551
14:00+9юз2593100 1.9 1020287
17:00+9ю2795100 4.3 1019486
20:00+9зюз1397100 3.5 101793